| time (UTC) | temp F | wind direction | speed MPH | gust MPH | rain 1hr in | rain 24hr in | rain mn in | humidity % | barometer mb |
| 20260502164008 | 51 | 138 | 5.0 | 14.0 | 0.00 | 0.04 | 0.04 | 82 | 1012.4 |
| 20260502163503 | 51 | 176 | 2.0 | 7.0 | 0.00 | 0.04 | 0.04 | 82 | 1012.1 |
| 20260502163000 | 51 | 115 | 3.0 | 8.0 | 0.00 | 0.04 | 0.04 | 84 | 1012.5 |
| 20260502162457 | 50 | 93 | 3.0 | 7.0 | 0.00 | 0.04 | 0.04 | 85 | 1012.5 |
| 20260502161954 | 50 | 106 | 4.0 | 9.0 | 0.00 | 0.04 | 0.04 | 86 | 1012.7 |
| 20260502161450 | 50 | 76 | 0.0 | 5.0 | 0.00 | 0.04 | 0.04 | 88 | 1012.8 |
| 20260502160949 | 49 | 123 | 3.0 | 9.0 | 0.00 | 0.04 | 0.04 | 88 | 1012.5 |
| 20260502160446 | 49 | 112 | 7.0 | 9.0 | 0.00 | 0.04 | 0.04 | 88 | 1012.8 |
| 20260502151930 | 49 | 135 | 0.0 | 10.0 | 0.00 | 0.04 | 0.04 | 88 | 1013.1 |
| 20260502151426 | 49 | 128 | 4.0 | 10.0 | 0.00 | 0.04 | 0.04 | 88 | 1013.2 |
| 20260502150924 | 49 | 192 | 3.0 | 5.0 | 0.00 | 0.04 | 0.04 | 88 | 1013.1 |
| 20260502150420 | 48 | 97 | 3.0 | 8.0 | 0.00 | 0.04 | 0.04 | 87 | 1013.2 |
| 20260502130306 | 47 | 112 | 3.0 | 5.0 | 0.00 | 0.04 | 0.04 | 97 | 1013.3 |
| 20260502123752 | 46 | 149 | 3.0 | 6.0 | 0.00 | 0.04 | 0.04 | 97 | 1013.9 |
| 20260502123248 | 45 | 112 | 4.0 | 7.0 | 0.00 | 0.04 | 0.04 | 97 | 1013.9 |
| 20260502122745 | 45 | 102 | 3.0 | 5.0 | 0.00 | 0.04 | 0.04 | 97 | 1014.1 |
| 20260502122241 | 45 | 119 | 4.0 | 5.0 | 0.00 | 0.04 | 0.04 | 97 | 1014.1 |
| 20260502121740 | 45 | 110 | 4.0 | 5.0 | 0.02 | 0.04 | 0.04 | 97 | 1014.1 |
| 20260502121237 | 45 | 93 | 2.0 | 3.0 | 0.02 | 0.04 | 0.04 | 97 | 1013.7 |
| 20260502120733 | 45 | 225 | 0.0 | 2.0 | 0.00 | 0.04 | 0.04 | 97 | 1013.9 |
| 20260502120230 | 45 | 269 | 0.0 | 3.0 | 0.02 | 0.04 | 0.04 | 97 | 1014.0 |
| 20260502115728 | 45 | 229 | 0.0 | 3.0 | 0.05 | 0.04 | 0.04 | 97 | 1014.2 |
| 20260502115225 | 45 | 267 | 3.0 | 5.0 | 0.07 | 0.04 | 0.04 | 97 | 1014.0 |
| 20260502114720 | 45 | 308 | 0.0 | 3.0 | 0.02 | 0.03 | 0.03 | 97 | 1013.7 |
| 20260502114218 | 45 | 318 | 3.0 | 5.0 | 0.00 | 0.02 | 0.02 | 97 | 1013.8 |
| 20260502113715 | 45 | 309 | 3.0 | 5.0 | 0.00 | 0.02 | 0.02 | 97 | 1013.8 |
| 20260502113213 | 45 | 305 | 3.0 | 5.0 | 0.00 | 0.02 | 0.02 | 96 | 1013.8 |
| 20260502112711 | 45 | 297 | 2.0 | 4.0 | 0.00 | 0.02 | 0.02 | 96 | 1013.7 |
| 20260502112208 | 45 | 262 | 2.0 | 4.0 | 0.00 | 0.02 | 0.02 | 96 | 1013.6 |
| 20260502111705 | 45 | 286 | 3.0 | 3.0 | 0.00 | 0.02 | 0.02 | 96 | 1013.5 |
| 20260502111203 | 45 | 275 | 3.0 | 3.0 | 0.00 | 0.02 | 0.02 | 96 | 1013.2 |
| 20260502110700 | 45 | 76 | 0.0 | 3.0 | 0.00 | 0.02 | 0.02 | 96 | 1013.1 |
| 20260502110157 | 44 | 71 | 2.0 | 4.0 | 0.00 | 0.02 | 0.02 | 96 | 1013.2 |
| 20260502105655 | 44 | 41 | 4.0 | 5.0 | 0.02 | 0.02 | 0.02 | 96 | 1013.0 |
| 20260502105152 | 44 | 72 | 4.0 | 5.0 | 0.00 | 0.02 | 0.02 | 95 | 1013.3 |
| 20260502104649 | 44 | 147 | 0.0 | 0.0 | 0.00 | 0.02 | 0.02 | 95 | 1013.6 |
| 20260502104147 | 44 | 175 | 0.0 | 0.0 | 0.02 | 0.02 | 0.02 | 95 | 1013.4 |
| 20260502103644 | 44 | 301 | 0.0 | 3.0 | 0.02 | 0.02 | 0.02 | 95 | 1013.4 |
| 20260502103142 | 44 | 249 | 0.0 | 4.0 | 0.00 | 0.02 | 0.02 | 95 | 1013.0 |
| 20260502102638 | 44 | 299 | 0.0 | 3.0 | 0.00 | 0.02 | 0.02 | 95 | 1012.9 |
| 20260502102135 | 44 | 185 | 0.0 | 3.0 | 0.02 | 0.02 | 0.02 | 95 | 1013.1 |
| 20260502101633 | 44 | 129 | 3.0 | 3.0 | 0.02 | 0.02 | 0.02 | 94 | 1012.9 |
| 20260502101131 | 44 | 124 | 0.0 | 2.0 | 0.00 | 0.01 | 0.01 | 94 | 1012.7 |
| 20260502100629 | 44 | 155 | 2.0 | 4.0 | 0.00 | 0.01 | 0.01 | 94 | 1012.8 |
| 20260502100127 | 44 | 193 | 0.0 | 3.0 | 0.02 | 0.01 | 0.01 | 94 | 1012.8 |
| 20260502091101 | 44 | 105 | 0.0 | 4.0 | 0.00 | 0.01 | 0.01 | 94 | 1012.3 |
| 20260502090558 | 44 | 105 | 3.0 | 4.0 | 0.00 | 0.01 | 0.01 | 94 | 1012.4 |
| 20260502071452 | 46 | 82 | 3.0 | 4.0 | 0.00 | 0.00 | 0.00 | 84 | 1012.8 |
| 20260502070950 | 46 | 161 | 2.0 | 5.0 | 0.00 | 0.00 | 0.00 | 83 | 1012.6 |
| 20260502070448 | 46 | 93 | 5.0 | 6.0 | 0.00 | 0.00 | 0.00 | 82 | 1012.5 |
| 20260502065946 | 46 | 102 | 5.0 | 6.0 | 0.00 | 0.00 | 0.00 | 82 | 1012.4 |
| 20260502065445 | 47 | 87 | 4.0 | 5.0 | 0.00 | 0.00 | 0.00 | 82 | 1012.5 |
| 20260502064942 | 47 | 144 | 5.0 | 6.0 | 0.00 | 0.00 | 0.00 | 80 | 1012.3 |
| 20260502064440 | 47 | 55 | 0.0 | 5.0 | 0.00 | 0.00 | 0.00 | 79 | 1012.6 |
| 20260502063937 | 47 | 63 | 2.0 | 5.0 | 0.00 | 0.00 | 0.00 | 78 | 1012.6 |
| 20260502063435 | 47 | 100 | 3.0 | 5.0 | 0.00 | 0.00 | 0.00 | 78 | 1012.6 |
| 20260502062932 | 47 | 83 | 6.0 | 6.0 | 0.00 | 0.00 | 0.00 | 78 | 1012.7 |
| 20260502062429 | 47 | 134 | 4.0 | 5.0 | 0.00 | 0.00 | 0.00 | 78 | 1012.8 |
| 20260502061928 | 47 | 100 | 4.0 | 5.0 | 0.00 | 0.00 | 0.00 | 79 | 1013.0 |
| 20260502061425 | 47 | 113 | 0.0 | 4.0 | 0.00 | 0.00 | 0.00 | 79 | 1012.8 |
| 20260502060921 | 47 | 233 | 0.0 | 5.0 | 0.00 | 0.00 | 0.00 | 81 | 1013.0 |
| 20260502060416 | 47 | 119 | 0.0 | 3.0 | 0.00 | 0.00 | 0.00 | 79 | 1013.1 |
| 20260502055914 | 47 | 122 | 4.0 | 5.0 | 0.00 | 0.00 | 0.00 | 78 | 1012.6 |
| 20260502055411 | 47 | 60 | 4.0 | 5.0 | 0.00 | 0.00 | 0.00 | 76 | 1012.5 |
| 20260502054906 | 48 | 57 | 0.0 | 3.0 | 0.00 | 0.00 | 0.00 | 74 | 1012.9 |
| 20260502054403 | 48 | 219 | 2.0 | 5.0 | 0.00 | 0.00 | 0.00 | 72 | 1012.9 |
| 20260502053900 | 48 | 125 | 0.0 | 3.0 | 0.00 | 0.00 | 0.00 | 72 | 1013.0 |
| 20260502053357 | 48 | 140 | 5.0 | 6.0 | 0.00 | 0.00 | 0.00 | 72 | 1012.7 |
| 20260502052854 | 48 | 163 | 0.0 | 4.0 | 0.00 | 0.00 | 0.00 | 72 | 1013.1 |
| 20260502052352 | 48 | 122 | 3.0 | 5.0 | 0.00 | 0.00 | 0.00 | 72 | 1012.9 |
| 20260502051850 | 48 | 131 | 0.0 | 5.0 | 0.00 | 0.00 | 0.00 | 71 | 1012.9 |
| 20260502051349 | 48 | 129 | 4.0 | 4.0 | 0.00 | 0.00 | 0.00 | 71 | 1013.1 |
| 20260502050845 | 48 | 102 | 3.0 | 5.0 | 0.00 | 0.00 | 0.00 | 70 | 1013.1 |
| 20260502050341 | 48 | 137 | 3.0 | 4.0 | 0.00 | 0.00 | 0.00 | 70 | 1013.1 |
| 20260502045838 | 48 | 96 | 3.0 | 4.0 | 0.00 | 0.00 | 0.00 | 69 | 1012.9 |
| 20260502045335 | 48 | 116 | 4.0 | 5.0 | 0.00 | 0.00 | 0.00 | 69 | 1013.0 |
| 20260502044833 | 49 | 129 | 0.0 | 3.0 | 0.00 | 0.00 | 0.00 | 68 | 1013.0 |
| 20260502044328 | 49 | 150 | 3.0 | 4.0 | 0.00 | 0.00 | 0.00 | 68 | 1013.1 |
| 20260502043825 | 49 | 160 | 2.0 | 5.0 | 0.00 | 0.00 | 0.00 | 67 | 1013.0 |
| 20260502043323 | 49 | 93 | 3.0 | 7.0 | 0.00 | 0.00 | 0.00 | 67 | 1012.8 |
| 20260502042822 | 49 | 162 | 0.0 | 8.0 | 0.00 | 0.00 | 0.00 | 67 | 1012.9 |
| 20260502042320 | 49 | 144 | 3.0 | 7.0 | 0.00 | 0.00 | 0.00 | 67 | 1012.8 |
| 20260502041817 | 49 | 127 | 3.0 | 5.0 | 0.00 | 0.00 | 0.00 | 66 | 1012.9 |
| 20260502041314 | 49 | 154 | 2.0 | 3.0 | 0.00 | 0.00 | 0.00 | 65 | 1012.9 |
| 20260502040812 | 49 | 121 | 3.0 | 3.0 | 0.00 | 0.00 | 0.00 | 65 | 1013.1 |
| 20260502040308 | 50 | 109 | 3.0 | 5.0 | 0.00 | 0.00 | 0.00 | 64 | 1013.1 |
| 20260502035804 | 50 | 129 | 4.0 | 5.0 | 0.00 | 0.00 | 0.00 | 63 | 1012.8 |
| 20260502035301 | 50 | 133 | 3.0 | 4.0 | 0.00 | 0.00 | 0.00 | 62 | 1013.2 |
| 20260502034758 | 50 | 147 | 0.0 | 3.0 | 0.00 | 0.00 | 0.00 | 62 | 1013.2 |
| 20260502034257 | 50 | 120 | 3.0 | 3.0 | 0.00 | 0.00 | 0.00 | 61 | 1013.3 |
| 20260502033755 | 50 | 105 | 2.0 | 3.0 | 0.00 | 0.00 | 0.00 | 61 | 1013.1 |
| 20260502033252 | 50 | 134 | 0.0 | 4.0 | 0.00 | 0.00 | 0.00 | 60 | 1013.0 |
| 20260502032748 | 50 | 101 | 2.0 | 5.0 | 0.00 | 0.00 | 0.00 | 59 | 1013.1 |
| 20260502032245 | 50 | 120 | 3.0 | 4.0 | 0.00 | 0.00 | 0.00 | 58 | 1013.1 |
| 20260502031743 | 50 | 141 | 4.0 | 5.0 | 0.00 | 0.00 | 0.00 | 57 | 1013.1 |
| 20260502031240 | 51 | 161 | 0.0 | 3.0 | 0.00 | 0.00 | 0.00 | 57 | 1013.3 |
| 20260502030739 | 51 | 269 | 0.0 | 0.0 | 0.00 | 0.00 | 0.00 | 56 | 1013.2 |
| 20260502030237 | 51 | 240 | 0.0 | 3.0 | 0.00 | 0.00 | 0.00 | 55 | 1013.1 |
| 20260502025734 | 51 | 267 | 0.0 | 5.0 | 0.00 | 0.00 | 0.00 | 54 | 1012.9 |
| 20260502025232 | 52 | 210 | 0.0 | 4.0 | 0.00 | 0.00 | 0.00 | 54 | 1013.0 |
| 20260502024729 | 52 | 219 | 0.0 | 6.0 | 0.00 | 0.00 | 0.00 | 53 | 1012.9 |
| 20260502024227 | 52 | 292 | 0.0 | 5.0 | 0.00 | 0.00 | 0.00 | 52 | 1013.1 |
| 20260502023725 | 52 | 240 | 3.0 | 3.0 | 0.00 | 0.00 | 0.00 | 53 | 1013.0 |
| 20260502023222 | 52 | 222 | 3.0 | 5.0 | 0.00 | 0.00 | 0.00 | 53 | 1013.0 |
| 20260502022720 | 52 | 269 | 0.0 | 5.0 | 0.00 | 0.00 | 0.00 | 52 | 1013.1 |
| 20260502022216 | 52 | 44 | 0.0 | 5.0 | 0.00 | 0.00 | 0.00 | 52 | 1013.2 |
| 20260502021713 | 52 | 228 | 4.0 | 4.0 | 0.00 | 0.00 | 0.00 | 52 | 1013.0 |
| 20260502021210 | 52 | 230 | 2.0 | 6.0 | 0.00 | 0.00 | 0.00 | 52 | 1013.1 |
| 20260502020707 | 51 | 223 | 3.0 | 6.0 | 0.00 | 0.00 | 0.00 | 53 | 1013.0 |
| 20260502020204 | 51 | 223 | 0.0 | 5.0 | 0.00 | 0.00 | 0.00 | 53 | 1013.1 |
| 20260502015702 | 51 | 242 | 5.0 | 8.0 | 0.00 | 0.00 | 0.00 | 52 | 1013.1 |
| 20260502015158 | 50 | 306 | 4.0 | 6.0 | 0.00 | 0.00 | 0.00 | 55 | 1013.1 |
| 20260502014656 | 50 | 289 | 4.0 | 5.0 | 0.00 | 0.00 | 0.00 | 55 | 1012.9 |
| 20260502014153 | 50 | 283 | 0.0 | 3.0 | 0.00 | 0.00 | 0.00 | 58 | 1013.0 |
| 20260502013649 | 50 | 135 | 0.0 | 0.0 | 0.00 | 0.00 | 0.00 | 51 | 1012.7 |
| 20260502013144 | 50 | 135 | 0.0 | 0.0 | 0.00 | 0.00 | 0.00 | 51 | 1012.7 |
| 20260502012642 | 50 | 129 | 0.0 | 4.0 | 0.00 | 0.00 | 0.00 | 50 | 1012.6 |
| 20260502012140 | 50 | 120 | 3.0 | 4.0 | 0.00 | 0.00 | 0.00 | 49 | 1012.6 |
| 20260502011636 | 51 | 113 | 3.0 | 4.0 | 0.00 | 0.00 | 0.00 | 47 | 1012.6 |
| 20260502011132 | 51 | 113 | 0.0 | 0.0 | 0.00 | 0.00 | 0.00 | 47 | 1012.6 |
| 20260502010630 | 51 | 113 | 0.0 | 2.0 | 0.00 | 0.00 | 0.00 | 46 | 1012.3 |
| 20260502010126 | 51 | 125 | 0.0 | 3.0 | 0.00 | 0.00 | 0.00 | 46 | 1012.4 |
| 20260502005624 | 51 | 127 | 0.0 | 2.0 | 0.00 | 0.00 | 0.00 | 47 | 1012.5 |
| 20260502005121 | 51 | 89 | 0.0 | 0.0 | 0.00 | 0.00 | 0.00 | 47 | 1012.4 |
| 20260502004616 | 51 | 89 | 0.0 | 0.0 | 0.00 | 0.00 | 0.00 | 48 | 1012.2 |
| 20260502004114 | 51 | 89 | 0.0 | 0.0 | 0.00 | 0.00 | 0.00 | 45 | 1012.2 |
| 20260502003612 | 52 | 83 | 0.0 | 3.0 | 0.00 | 0.00 | 0.00 | 44 | 1012.2 |
| 20260502003108 | 52 | 76 | 0.0 | 3.0 | 0.00 | 0.00 | 0.00 | 44 | 1012.3 |
| 20260502002604 | 52 | 66 | 0.0 | 0.0 | 0.00 | 0.00 | 0.00 | 44 | 1012.2 |
| 20260502002102 | 53 | 103 | 0.0 | 0.0 | 0.00 | 0.00 | 0.00 | 42 | 1011.7 |
| 20260502001600 | 53 | 81 | 3.0 | 3.0 | 0.00 | 0.00 | 0.00 | 43 | 1011.9 |
| 20260502001056 | 53 | 87 | 3.0 | 3.0 | 0.00 | 0.00 | 0.00 | 43 | 1012.0 |
| 20260502000555 | 53 | 109 | 0.0 | 3.0 | 0.00 | 0.00 | 0.00 | 44 | 1011.9 |
| 20260502000052 | 53 | 82 | 2.0 | 3.0 | 0.00 | 0.00 | 0.00 | 43 | 1011.6 |
| 20260501235547 | 54 | 230 | 0.0 | 0.0 | 0.00 | 0.00 | 0.00 | 41 | 1011.6 |
| 20260501235043 | 55 | 301 | 0.0 | 2.0 | 0.00 | 0.00 | 0.00 | 40 | 1011.5 |
| 20260501234539 | 55 | 281 | 0.0 | 2.0 | 0.00 | 0.00 | 0.00 | 40 | 1011.5 |
| 20260501234038 | 56 | 298 | 0.0 | 3.0 | 0.00 | 0.00 | 0.00 | 40 | 1011.4 |
| 20260501233535 | 56 | 306 | 0.0 | 3.0 | 0.00 | 0.00 | 0.00 | 39 | 1011.3 |
| 20260501233032 | 56 | 305 | 0.0 | 0.0 | 0.00 | 0.00 | 0.00 | 39 | 1011.4 |
| 20260501232528 | 57 | 313 | 2.0 | 3.0 | 0.00 | 0.00 | 0.00 | 39 | 1011.2 |
| 20260501232025 | 57 | 299 | 5.0 | 5.0 | 0.00 | 0.00 | 0.00 | 41 | 1011.3 |
| 20260501231523 | 57 | 301 | 4.0 | 11.0 | 0.00 | 0.00 | 0.00 | 37 | 1011.1 |
| 20260501231021 | 57 | 289 | 5.0 | 6.0 | 0.00 | 0.00 | 0.00 | 36 | 1010.9 |
| 20260501230520 | 58 | 328 | 3.0 | 6.0 | 0.00 | 0.00 | 0.00 | 37 | 1010.9 |
| 20260501230017 | 58 | 306 | 5.0 | 7.0 | 0.00 | 0.00 | 0.00 | 37 | 1010.9 |
| 20260501225515 | 58 | 306 | 5.0 | 6.0 | 0.00 | 0.00 | 0.00 | 36 | 1010.8 |
| 20260501225010 | 58 | 327 | 4.0 | 9.0 | 0.00 | 0.00 | 0.00 | 37 | 1010.7 |
| 20260501224508 | 58 | 298 | 6.0 | 7.0 | 0.00 | 0.00 | 0.00 | 37 | 1010.5 |
| 20260501224005 | 58 | 287 | 4.0 | 9.0 | 0.00 | 0.00 | 0.00 | 35 | 1010.7 |
| 20260501223501 | 59 | 292 | 6.0 | 10.0 | 0.00 | 0.00 | 0.00 | 36 | 1010.7 |
| 20260501222957 | 59 | 293 | 6.0 | 13.0 | 0.00 | 0.00 | 0.00 | 35 | 1010.5 |
| 20260501222454 | 59 | 296 | 5.0 | 10.0 | 0.00 | 0.00 | 0.00 | 35 | 1010.6 |
| 20260501221950 | 59 | 315 | 8.0 | 11.0 | 0.00 | 0.00 | 0.00 | 34 | 1010.7 |
| 20260501221447 | 59 | 310 | 12.0 | 13.0 | 0.00 | 0.00 | 0.00 | 35 | 1010.6 |
| 20260501220946 | 59 | 236 | 5.0 | 11.0 | 0.00 | 0.00 | 0.00 | 37 | 1010.7 |
| 20260501220443 | 59 | 333 | 4.0 | 7.0 | 0.00 | 0.00 | 0.00 | 35 | 1010.9 |
| 20260501215938 | 59 | 306 | 10.0 | 13.0 | 0.00 | 0.00 | 0.00 | 34 | 1010.6 |
| 20260501215436 | 60 | 284 | 7.0 | 11.0 | 0.00 | 0.00 | 0.00 | 34 | 1010.7 |
| 20260501214931 | 60 | 310 | 8.0 | 8.0 | 0.00 | 0.00 | 0.00 | 36 | 1010.8 |
| 20260501214427 | 60 | 278 | 6.0 | 7.0 | 0.00 | 0.00 | 0.00 | 34 | 1010.5 |
| 20260501213922 | 59 | 325 | 6.0 | 7.0 | 0.00 | 0.00 | 0.00 | 35 | 1010.5 |
| 20260501213420 | 60 | 269 | 8.0 | 11.0 | 0.00 | 0.00 | 0.00 | 34 | 1010.6 |
| 20260501212915 | 59 | 299 | 7.0 | 12.0 | 0.00 | 0.00 | 0.00 | 35 | 1010.5 |
| 20260501212412 | 60 | 299 | 5.0 | 9.0 | 0.00 | 0.00 | 0.00 | 35 | 1010.6 |
| 20260501211909 | 59 | 304 | 9.0 | 11.0 | 0.00 | 0.00 | 0.00 | 35 | 1010.6 |
| 20260501211406 | 59 | 318 | 13.0 | 16.0 | 0.00 | 0.00 | 0.00 | 34 | 1010.4 |
| 20260501210904 | 59 | 308 | 11.0 | 12.0 | 0.00 | 0.00 | 0.00 | 34 | 1010.6 |
| 20260501210400 | 59 | 304 | 12.0 | 17.0 | 0.00 | 0.00 | 0.00 | 33 | 1010.4 |
| 20260501205857 | 60 | 312 | 16.0 | 18.0 | 0.00 | 0.00 | 0.00 | 34 | 1010.6 |
| 20260501205354 | 59 | 310 | 6.0 | 11.0 | 0.00 | 0.00 | 0.00 | 34 | 1010.5 |
| 20260501204851 | 60 | 289 | 14.0 | 15.0 | 0.00 | 0.00 | 0.00 | 34 | 1010.5 |
| 20260501204347 | 60 | 299 | 10.0 | 15.0 | 0.00 | 0.00 | 0.00 | 33 | 1010.3 |
| 20260501203843 | 60 | 323 | 7.0 | 11.0 | 0.00 | 0.00 | 0.00 | 34 | 1010.4 |
| 20260501203340 | 59 | 292 | 0.0 | 9.0 | 0.00 | 0.00 | 0.00 | 34 | 1010.3 |
| 20260501202837 | 59 | 305 | 10.0 | 14.0 | 0.00 | 0.00 | 0.00 | 33 | 1010.4 |
| 20260501202334 | 59 | 318 | 7.0 | 10.0 | 0.00 | 0.00 | 0.00 | 33 | 1010.3 |
| 20260501201831 | 59 | 276 | 8.0 | 12.0 | 0.00 | 0.00 | 0.00 | 33 | 1010.2 |
| 20260501201328 | 59 | 289 | 4.0 | 13.0 | 0.00 | 0.00 | 0.00 | 33 | 1010.4 |
| 20260501200824 | 60 | 324 | 9.0 | 15.0 | 0.00 | 0.00 | 0.00 | 32 | 1010.3 |
| 20260501200321 | 60 | 293 | 5.0 | 14.0 | 0.00 | 0.00 | 0.00 | 33 | 1010.3 |
| 20260501195819 | 60 | 298 | 11.0 | 15.0 | 0.00 | 0.00 | 0.00 | 33 | 1010.3 |
| 20260501195315 | 60 | 352 | 6.0 | 10.0 | 0.00 | 0.00 | 0.00 | 34 | 1010.2 |
| 20260501194811 | 60 | 295 | 7.0 | 11.0 | 0.00 | 0.00 | 0.00 | 34 | 1010.3 |
| 20260501194307 | 59 | 290 | 12.0 | 12.0 | 0.00 | 0.00 | 0.00 | 32 | 1010.2 |
| 20260501193804 | 59 | 312 | 12.0 | 18.0 | 0.00 | 0.00 | 0.00 | 33 | 1010.3 |
| 20260501193302 | 61 | 308 | 11.0 | 13.0 | 0.00 | 0.00 | 0.00 | 33 | 1010.4 |
| 20260501192759 | 60 | 304 | 9.0 | 10.0 | 0.00 | 0.00 | 0.00 | 33 | 1010.2 |
| 20260501192255 | 60 | 305 | 17.0 | 19.0 | 0.00 | 0.00 | 0.00 | 32 | 1010.6 |
| 20260501191753 | 61 | 325 | 13.0 | 19.0 | 0.00 | 0.00 | 0.00 | 32 | 1010.6 |
| 20260501191250 | 60 | 7 | 8.0 | 11.0 | 0.00 | 0.00 | 0.00 | 33 | 1010.6 |
| 20260501190747 | 60 | 292 | 9.0 | 17.0 | 0.00 | 0.00 | 0.00 | 33 | 1010.7 |
| 20260501190243 | 61 | 290 | 12.0 | 16.0 | 0.00 | 0.00 | 0.00 | 33 | 1010.5 |
| 20260501185739 | 60 | 302 | 10.0 | 12.0 | 0.00 | 0.00 | 0.00 | 35 | 1010.5 |
| 20260501185234 | 60 | 277 | 7.0 | 13.0 | 0.00 | 0.00 | 0.00 | 36 | 1010.8 |
| 20260501184731 | 59 | 266 | 8.0 | 12.0 | 0.00 | 0.00 | 0.00 | 35 | 1010.8 |
| 20260501184226 | 60 | 325 | 10.0 | 16.0 | 0.00 | 0.00 | 0.00 | 36 | 1010.7 |
| 20260501183722 | 60 | 261 | 3.0 | 6.0 | 0.00 | 0.00 | 0.00 | 37 | 1010.7 |
| 20260501183220 | 57 | 276 | 8.0 | 9.0 | 0.00 | 0.00 | 0.00 | 40 | 1011.0 |
| 20260501182716 | 59 | 10 | 4.0 | 5.0 | 0.00 | 0.00 | 0.00 | 39 | 1011.1 |
| 20260501182213 | 59 | 59 | 3.0 | 5.0 | 0.00 | 0.00 | 0.00 | 40 | 1011.1 |
| 20260501181710 | 59 | 330 | 2.0 | 13.0 | 0.00 | 0.00 | 0.00 | 39 | 1010.9 |
| 20260501181207 | 58 | 257 | 6.0 | 11.0 | 0.00 | 0.00 | 0.00 | 39 | 1011.1 |
| 20260501180705 | 56 | 300 | 4.0 | 5.0 | 0.00 | 0.00 | 0.00 | 41 | 1011.2 |
| 20260501180201 | 56 | 10 | 0.0 | 11.0 | 0.00 | 0.00 | 0.00 | 42 | 1011.1 |
| 20260501175657 | 57 | 292 | 12.0 | 21.0 | 0.00 | 0.00 | 0.00 | 40 | 1011.2 |
| 20260501175154 | 58 | 279 | 14.0 | 18.0 | 0.00 | 0.00 | 0.00 | 38 | 1011.0 |
| 20260501174651 | 58 | 320 | 14.0 | 15.0 | 0.00 | 0.00 | 0.00 | 40 | 1011.0 |
| 20260501174149 | 57 | 318 | 7.0 | 14.0 | 0.00 | 0.00 | 0.00 | 39 | 1011.0 |
| 20260501173646 | 58 | 278 | 8.0 | 14.0 | 0.00 | 0.00 | 0.00 | 42 | 1011.2 |
| 20260501173143 | 58 | 319 | 7.0 | 12.0 | 0.00 | 0.00 | 0.00 | 39 | 1011.3 |
| 20260501172639 | 56 | 261 | 12.0 | 17.0 | 0.00 | 0.00 | 0.00 | 41 | 1011.3 |
| 20260501172134 | 57 | 29 | 4.0 | 14.0 | 0.00 | 0.00 | 0.00 | 42 | 1011.3 |
| 20260501171630 | 55 | 321 | 3.0 | 15.0 | 0.00 | 0.00 | 0.00 | 43 | 1011.3 |
| 20260501171127 | 57 | 67 | 6.0 | 12.0 | 0.00 | 0.00 | 0.00 | 43 | 1011.5 |